Spokane Felts, WA

11:42 PM PDT on July 22, 2017 (GMT -0700)
Felts

Weather History for KSFF - May, 2013

Change the Weather History Date:

Sunday, May 5, 2013

  Actual Average Record
Temperature  
Mean Temperature 60 °F 52 °F  
Max Temperature 80 °F 65 °F 80 °F (1998)
Min Temperature 40 °F 39 °F 30 °F (1999)
Degree Days  
Heating Degree Days 5 13  
Month to date heating degree days 48 69  
Since 1 July heating degree days 5360 5924  
Cooling Degree Days 0 0  
Month to date cooling degree days 0 0  
Year to date cooling degree days 0 0  
Growing Degree Days 10 (Base 50)    
Moisture  
Dew Point 31 °F    
Average Humidity 41    
Maximum Humidity 67    
Minimum Humidity 14    
Precipitation  
Precipitation 0.00 in 0.04 in 0.42 in (2002)
Month to date precipitation T 0.20  
Year to date precipitation 4.37 6.34  
Sea Level Pressure  
Sea Level Pressure 29.96 in    
Wind  
Wind Speed 4 mph (ENE)    
Max Wind Speed 16 mph    
Max Gust Speed 25 mph    
Visibility 10 miles    
Events      
T = Trace of Precipitation, MM = Missing Value Source: NWS Daily Summary

Daily Weather History Graph

Daily Weather History Graph

Search for Another Location

Airport or City:

Trip Planner

Search our weather history database for the weather conditions in past years. The results will help you decide how hot, cold, wet, or windy it might be!

Date:

Astronomy

May. 05, 2013 Rise Set
Actual Time 5:25 AM PDT 8:07 PM PDT
Civil Twilight 4:50 AM PDT 8:42 PM PDT
Nautical Twilight 4:05 AM PDT 9:27 PM PDT
Astronomical Twilight 3:13 AM PDT 10:20 PM PDT
Moon 3:16 AM PDT (5/5) 3:56 PM PDT (5/5)
Length of Visible Light 15h 52m
Length of Day
14h 42m
Waning Crescent, 17% of the Moon is Illuminated
May 5
Waning Crescent
May 9
New
May 17
First Quarter
May 24
Full
May 31
Last Quarter

Hourly Weather History & Observations

Time (PDT) Temp. Dew Point Humidity Pressure Visibility Wind Dir Wind Speed Gust Speed Precip Events Conditions
12:53 AM 50.0 °F 35.1 °F 57% 30.07 in 10.0 mi Calm Calm - N/A   Clear
1:53 AM 48.0 °F 34.0 °F 58% 30.07 in 10.0 mi SSW 3.5 mph - N/A   Clear
2:53 AM 46.0 °F 33.1 °F 61% 30.07 in 10.0 mi Calm Calm - N/A   Clear
3:53 AM 44.1 °F 30.9 °F 60% 30.05 in 10.0 mi Calm Calm - N/A   Clear
4:53 AM 43.0 °F 32.0 °F 65% 30.05 in 10.0 mi Calm Calm - N/A   Clear
5:53 AM 41.0 °F 30.9 °F 67% 30.05 in 10.0 mi Calm Calm - N/A   Clear
6:53 AM 51.1 °F 33.1 °F 50% 30.04 in 10.0 mi Calm Calm - N/A   Clear
7:53 AM 55.0 °F 34.0 °F 45% 30.04 in 10.0 mi Calm Calm - N/A   Clear
8:53 AM 61.0 °F 33.1 °F 35% 30.03 in 10.0 mi Calm Calm - N/A   Clear
9:53 AM 64.9 °F 34.0 °F 32% 30.00 in 10.0 mi Calm Calm - N/A   Clear
10:53 AM 69.8 °F 30.2 °F 23% 30.00 in 10.0 mi East 15.0 mph 19.6 mph N/A   Clear
11:53 AM 73.0 °F 30.9 °F 21% 29.96 in 10.0 mi ENE 12.7 mph - N/A   Clear
12:53 PM 75.9 °F 30.0 °F 19% 29.93 in 10.0 mi ENE 5.8 mph - N/A   Clear
1:53 PM 77.0 °F 30.0 °F 18% 29.91 in 10.0 mi ENE 9.2 mph - N/A   Clear
2:53 PM 79.0 °F 27.0 °F 15% 29.90 in 10.0 mi East 10.4 mph 17.3 mph N/A   Clear
3:53 PM 80.1 °F 27.0 °F 14% 29.88 in 10.0 mi ESE 4.6 mph - N/A   Clear
4:53 PM 78.8 °F 26.6 °F 15% 29.88 in 10.0 mi Calm Calm - N/A   Clear
5:53 PM 79.0 °F 26.1 °F 14% 29.85 in 10.0 mi Variable 4.6 mph - N/A   Clear
6:53 PM 77.0 °F 28.9 °F 17% 29.84 in 10.0 mi North 4.6 mph - N/A   Clear
7:53 PM 70.0 °F 30.0 °F 23% 29.84 in 10.0 mi NNE 4.6 mph - N/A   Clear
8:53 PM 64.0 °F 30.9 °F 29% 29.86 in 10.0 mi Calm Calm - N/A   Clear
9:53 PM 55.9 °F 33.1 °F 42% 29.87 in 10.0 mi Calm Calm - N/A   Clear
10:53 PM 54.0 °F 34.0 °F 47% 29.88 in 10.0 mi East 4.6 mph - N/A   Clear
11:53 PM 51.1 °F 34.0 °F 52% 29.88 in 10.0 mi East 4.6 mph - N/A   Clear